Voltar ao catálogo

CZ-6A DEB

AtivoPO
NORAD 55190·DEBRIS·🇨🇳 China

Lançado Nov 11, 2022 de Taiyuan Satellite Launch Center

Loading…

Próximas Passagens (próximas 24 horas)

TLE

AtualizadoSource: Space-Track

Época: Sep 14, 2026, 16:39 UTC

1 55190U 22151VF  26257.69414711  .00012198  00000-0  14734-2 0  9998
2 55190  98.6344 339.9320 0056619 333.2066  26.6223 14.82768349198871

Acompanhe CZ-6A DEB em tempo real com AllMySat

Download on the App Store